Location: *
(53.9002°N, 27.5624°E)
Time: 02:31:54
(UTC+00:00)

USA 238 DEB - Pass Details

Date: 12 November 2019
Orbit: 1024 x 1188 km, 63.4° (Epoch: 29 November)

Event Time Altitude Azimuth Distance (km) Brightness Sun altitude
Rises 17:27:16 0° 304° (NW) 3,887 7.6 -27.9°
Reaches altitude 10° 17:29:58 10° 309° (NW) 2,953 6.7 -28.3°
Maximum altitude 17:36:51 54° 26° (NNE) 1,353 4.0 -29.3°
Enters shadow 17:37:06 54° 34° (NE) 1,357 4.0 -29.4°
